SCP
0 0 0 0 0 0 0 1 0 0 0 0 0 0 0 0 0 0 0 0 0 0 0 0 0 0 0 0 0 0 0 0 0 0 1 1 1 1
0 0 0 0 0 0 0 1 1 0 0 0 0 0 0 0 0 0 0 0 0 0 0 0 0 0 0 0 0 0 0 0 0 0 1 1 1 1
0 0 0 0 0 0 0 0 1 0 0 0 0 0 0 0 0 0 0 0 0 0 0 0 0 0 0 0 0 0 0 0 0 0 1 1 1 1
0 0 0 0 0 0 0 0 0 0 0 0 0 0 0 0 0 0 0 0 0 0 0 0 0 0 0 0 0 0 0 0 0 0 1 1 1 1
0 0 0 0 0 0 0 0 0 0 0 0 0 0 0 0 0 0 0 0 0 0 0 0 0 0 0 0 0 0 0 0 0 0 0 0 0 0
0 0 0 0 0 0 0 0 0 0 0 0 0 0 0 0 0 0 0 0 0 0 0 0 0 0 0 0 0 0 0 0 0 0 0 0 0 0
0 0 0 0 0 0 0 0 0 0 0 0 0 0 0 0 0 0 0 0 0 0 0 0 0 0 0 0 0 0 0 0 0 0 0 0 0 0
0 0 0 0 0 0 0 0 0 0 0 0 0 0 0 0 0 0 0 0 0 0 0 0 0 0 0 0 0 0 0 0 0 0 0 0 0 0
0 0 0 0 0 0 0 0 0 0 0 0 0 0 0 0 0 0 0 0 0 0 0 0 0 0 0 0 0 0 0 0 0 0 0 0 0 0
0 0 0 0 0 0 0 0 0 0 0 0 0 0 0 0 0 0 0 0 0 0 0 0 0 0 0 0 0 0 0 0 0 0 0 0 0 0
0 0 0 0 0 0 0 0 0 0 0 0 0 0 0 0 0 0 0 0 0 0 0 0 0 0 0 0 0 0 0 0 0 0 0 0 0 0
0 0 0 0 0 0 0 0 0 0 0 0 0 0 0 0 0 0 0 0 0 0 0 0 0 0 0 0 0 0 0 0 0 0 0 0 0 0
0 0 0 0 0 0 0 0 0 0 0 0 0 0 0 0 0 0 0 0 0 0 0 0 0 0 0 0 0 0 0 0 0 0 0 0 0 0
0 0 0 0 0 0 0 0 0 0 0 0 0 0 0 0 0 0 0 0 0 0 0 0 0 0 0 0 0 0 0 0 0 0 0 0 0 0
0 0 0 0 0 0 0 0 0 0 0 0 0 0 0 0 0 0 0 0 0 0 0 0 0 0 0 0 0 0 0 0 0 0 0 0 0 0
0 0 0 0 0 0 0 0 0 0 0 0 0 0 0 0 0 0 0 0 0 0 0 0 0 0 0 0 0 0 0 0 0 0 0 0 0 0
0 0 0 0 0 0 0 0 0 0 0 0 0 0 0 0 0 0 0 0 0 0 0 0 0 0 0 0 0 0 0 0 0 0 0 0 0 0
0 0 0 0 0 0 0 0 0 0 0 0 0 0 0 0 0 0 0 0 0 0 0 0 0 0 0 0 0 0 0 0 0 0 0 0 0 0
0 0 0 0 0 0 0 0 0 0 0 0 0 0 0 0 0 0 0 0 0 0 0 0 0 0 0 0 0 0 0 0 0 0 0 0 0 0
0 0 0 0 0 0 0 0 0 0 0 0 0 0 0 0 0 0 0 0 0 0 0 0 0 0 0 0 0 0 0 0 0 0 0 0 0 0
0 0 0 0 0 0 0 0 0 0 0 0 0 0 0 0 0 0 0 0 0 0 0 0 0 0 0 0 0 0 0 0 0 0 0 0 0 0
0 0 0 0 0 0 0 0 0 0 0 0 0 0 0 0 0 0 0 0 0 0 0 0 0 0 0 0 0 0 0 0 0 0 0 0 0 0
0 0 0 0 0 0 0 0 0 0 0 0 0 0 0 0 0 0 0 0 0 0 0 0 0 0 0 0 0 0 0 0 0 0 0 0 0 0
Wind_Speed
4 4 3 2 2 2 2 2 3 4 5 3 2 2 2 2 4 3 3 7 8 8 8 9 9 10 10 10 10 11 12 13 13 14 14 15 15 14
3 3 3 2 2 2 2 2 3 4 5 2 2 2 3 3 5 3 3 7 8 8 9 9 9 9 9 10 11 12 12 13 13 14 14 15 14 13
3 3 3 3 2 2 2 2 2 2 5 4 2 2 3 3 3 3 3 3 4 8 9 9 8 9 9 10 10 11 12 12 13 13 14 14 12 11
4 3 3 2 2 2 2 3 3 2 3 4 3 2 3 3 3 3 3 3 3 6 9 9 9 9 9 9 9 10 10 10 11 12 13 12 11 11
4 3 3 3 3 2 3 2 2 2 2 3 3 2 2 2 3 3 3 3 4 5 8 8 8 9 9 9 9 9 9 10 11 11 10 10 9 10
3 3 3 3 3 3 3 2 2 2 2 2 2 2 2 2 2 3 3 3 4 4 5 5 7 8 8 8 8 8 9 9 9 10 8 7 8 8
2 3 3 3 3 3 2 2 2 2 2 2 2 2 2 1 2 2 3 3 3 2 2 3 3 3 4 7 7 7 8 8 8 9 8 7 7 6
2 2 2 2 2 3 4 3 3 2 2 2 2 2 3 2 1 2 2 3 3 2 2 4 2 3 4 3 5 7 7 7 8 8 8 6 6 6
2 1 1 1 1 1 1 3 3 4 4 2 2 3 2 2 1 2 2 2 3 3 2 3 3 3 4 4 5 6 6 7 7 8 7 7 7 6
1 1 1 1 0 0 1 1 1 2 3 2 1 1 1 1 2 2 2 2 2 2 1 2 3 3 4 3 5 5 6 7 8 9 9 8 7 7
1 1 0 1 1 1 1 1 1 1 3 3 3 3 3 2 2 1 1 1 3 2 1 1 2 4 3 3 3 5 6 7 8 10 10 9 7 7
0 0 1 1 1 1 1 1 1 1 1 2 3 3 2 2 2 1 0 1 2 2 2 2 2 2 3 2 1 2 3 5 8 10 10 10 8 4
0 0 0 1 2 2 2 1 1 1 1 1 1 2 2 2 2 2 1 0 1 2 2 1 1 2 1 3 3 2 2 2 3 5 7 10 10 6
0 0 1 2 2 2 2 1 2 2 1 1 1 2 2 2 2 2 2 1 1 2 2 1 1 1 2 2 2 3 3 3 3 3 3 7 8 9
1 1 1 2 3 2 3 2 2 1 1 1 1 1 1 1 1 2 2 2 3 2 2 2 1 1 1 1 2 3 3 3 3 2 3 4 4 4
1 1 2 3 3 3 3 2 1 1 1 1 1 1 1 1 2 2 2 2 2 3 3 3 2 1 1 2 1 2 3 2 3 3 3 3 3 3
1 1 1 1 1 1 1 2 2 1 1 1 1 1 1 2 2 2 2 2 2 2 3 3 3 1 1 1 1 2 2 2 2 3 3 4 4 3
2 2 2 2 1 1 1 2 2 1 1 1 1 1 1 1 2 2 2 2 2 2 2 3 3 2 2 3 2 1 1 2 2 3 3 3 4 3
2 2 1 1 1 1 1 1 1 1 1 1 1 1 1 1 1 1 2 2 2 2 2 2 2 2 3 3 3 3 2 2 3 3 3 2 3 4
1 1 1 1 1 1 1 1 1 1 1 1 1 1 1 1 1 1 1 2 1 2 2 2 2 2 1 1 1 3 4 3 2 2 2 2 2 3
1 1 1 1 1 1 1 1 1 1 1 1 1 1 1 1 1 1 1 1 2 1 2 3 3 4 1 1 1 2 3 5 4 2 2 2 2 3
1 1 1 1 1 1 1 1 1 1 1 1 1 1 1 1 0 1 1 1 1 1 1 2 2 2 2 2 2 3 3 4 5 6 5 2 1 1
1 1 1 0 0 0 1 1 1 1 1 0 0 0 1 0 0 0 1 1 1 1 1 2 2 2 2 2 1 2 3 4 4 4 4 5 4 3
Wind_Direction
232 229 226 232 233 231 237 241 245 275 275 257 269 268 273 269 278 281 278 283 292 293 290 285 284 285 288 290 291 292 293 294 294 293 291 289 288 288
233 226 231 227 235 231 228 246 244 251 269 275 267 293 292 290 284 281 274 290 288 288 285 284 283 284 288 290 287 287 290 292 293 291 289 289 288 289
244 234 234 229 226 230 233 237 247 244 265 285 287 291 291 294 299 293 287 278 279 285 286 286 286 287 289 290 285 287 288 291 294 293 290 292 290 291
241 235 233 239 238 232 229 235 247 245 249 273 287 291 289 289 296 296 301 300 295 294 291 287 287 286 286 290 294 296 296 297 300 298 294 288 285 287
233 230 227 226 240 244 246 244 250 257 251 256 277 288 289 299 306 303 308 308 301 297 290 285 286 286 286 290 295 299 302 303 303 303 299 295 290 286
238 239 233 227 225 225 242 238 244 248 247 252 268 290 296 302 315 311 310 309 300 300 290 291 294 293 292 294 296 301 305 308 314 317 308 302 297 292
252 251 248 251 255 253 256 234 232 237 244 253 261 284 289 310 305 302 301 311 303 310 313 305 302 298 291 291 295 304 311 314 320 323 316 301 299 298
247 256 261 257 278 286 284 283 277 253 236 244 259 262 269 271 287 295 305 317 306 310 314 302 304 302 303 295 303 313 317 323 329 328 332 330 321 316
246 247 271 272 286 200 301 323 316 310 289 260 244 258 259 258 271 289 294 296 292 301 320 302 316 311 311 317 321 324 330 337 342 345 347 347 343 329
266 251 234 245 256 162 91 11 345 329 313 305 279 277 285 267 244 253 265 299 316 323 340 305 320 315 314 316 326 335 341 348 357 1 359 356 349 341
338 331 316 171 292 340 61 34 6 342 342 338 338 348 353 350 344 9 350 353 331 323 353 324 309 319 314 307 328 342 345 352 1 3 2 359 351 344
18 352 316 332 332 345 76 99 350 315 345 0 352 354 1 3 5 7 288 299 321 315 341 343 313 334 325 315 335 344 351 359 2 1 358 359 354 353
79 103 72 3 9 15 15 77 344 346 30 19 6 14 18 19 16 20 18 282 274 281 294 328 324 345 322 323 346 355 357 360 1 357 358 1 359 357
153 88 63 19 23 24 24 32 10 10 40 42 36 20 11 10 14 22 27 17 331 270 265 296 282 316 333 333 333 345 353 352 356 358 7 1 360 359
117 72 35 22 12 24 34 21 17 37 55 45 23 353 347 3 21 25 25 24 16 2 352 344 332 345 355 326 329 334 342 350 1 11 12 7 2 360
79 78 38 26 20 25 24 15 29 53 53 42 13 355 10 25 28 24 20 20 24 4 2 6 5 36 360 327 319 323 340 341 350 357 2 2 358 359
91 80 68 55 50 44 42 41 47 41 33 26 30 23 24 21 19 19 21 16 16 357 360 7 16 36 22 327 0 333 340 351 344 352 2 359 354 357
82 76 64 57 51 42 44 38 30 34 32 23 31 39 33 24 19 18 25 22 18 1 355 352 358 19 39 27 17 348 357 352 348 352 353 3 355 354
68 71 64 56 46 39 33 29 12 6 9 3 18 35 39 30 22 21 20 15 10 2 356 2 12 23 35 15 356 12 10 352 354 360 360 3 347 337
54 59 46 48 47 37 28 12 2 0 359 357 12 37 51 42 31 26 16 6 8 8 8 14 16 16 26 351 331 337 348 342 350 350 347 348 336 327
38 42 34 39 34 15 359 351 345 342 342 355 11 31 46 49 35 23 13 23 31 19 5 359 351 348 348 45 20 354 356 356 344 329 330 341 347 360
33 46 43 38 29 1 344 340 339 343 338 355 24 38 47 57 54 13 38 51 40 28 9 352 350 5 33 48 25 356 352 354 359 356 348 328 310 346
355 15 25 19 348 310 314 326 331 329 332 31 42 64 71 54 17 51 68 62 52 54 40 21 13 24 32 31 27 9 1 353 356 5 5 3 2 325